Regional Weather Roundup
Issued by NWS

Home | Current Version | Previous Version | Graphics & Text | Print | Product List | Glossary On
Versions: 1 2 3 4 5 6 7 8 9 10 11 12 13 14 15 16 17 18 19 20 21 22 23 24 25 26 27 28 29 30 31 32 33 34 35 36 37 38 39 40 41 42 43 44 45 46 47 48 49 50
000
ASUS43 KLMK 282010
RWRKY
KENTUCKY REGIONAL WEATHER ROUNDUP
NATIONAL WEATHER SERVICE LOUISVILLE KY
400 PM EDT THU APR 28 2016

NOTE "FAIR" INDICATES FEW OR NO CLOUDS BELOW 12,000 FEET
WITH NO SIGNIFICANT WEATHER AND/OR OBSTRUCTIONS TO VISIBILITY.

KYZ001>023-026-027-061>063-070>075-282100-
WESTERN AND SOUTH CENTRAL KENTUCKY

CITY           SKY/WX    TMP DP  RH WIND       PRES   REMARKS
PADUCAH        SUNNY     77  53  43 W15       29.90S
HENDERSON      SUNNY     77  55  47 SW16      29.86F
OWENSBORO      SUNNY     78  53  41 W14       29.88S
HOPKINSVILLE   SUNNY     78  55  43 W12       29.90S
BOWLING GREEN  MOSUNNY   80  60  50 SW9       29.88S
GLASGOW        MOSUNNY   79  58  49 W15G26    29.88S
$$

KYZ024-025-028>034-038-045-046-053-282100-
NORTH CENTRAL KENTUCKY

CITY           SKY/WX    TMP DP  RH WIND       PRES   REMARKS
LOUISVILLE/SDF PTSUNNY   80  54  40 W22G30    29.83S
LOUISVILLE/LOU MOSUNNY   78  57  48 W16G23    29.83F
FORT KNOX      MOSUNNY   77  58  51 SW14G22   29.83F
$$

KYZ035>037-039>044-047>052-055>060-089>105-282100-
NORTHEAST KENTUCKY

CITY           SKY/WX    TMP DP  RH WIND       PRES   REMARKS
LEXINGTON      MOSUNNY   76  59  55 SW8       29.85S
COVINGTON      MOSUNNY   77  60  55 W10       29.81F
FRANKFORT      MOSUNNY   78  59  51 SW10      29.82F
$$

KYZ054-064>069-076>088-106>120-282100-
SOUTHEAST KENTUCKY

CITY           SKY/WX    TMP DP  RH WIND       PRES   REMARKS
JACKSON        MOSUNNY   80  57  45 MISG      29.86F
LONDON         SUNNY     80  54  40 W15       29.87F
SOMERSET       LGT RAIN  73  55  53 W9        29.89S
MIDDLESBORO    CLOUDY    79  59  50 SW7       29.88F
MONTICELLO     PTCLDY    79  61  53 SW17G23   29.89F
$$




USA.gov is the U.S. government's official web portal to all federal, state and local government web resources and services.